TimePST,TemperatureF,Dew PointF,Humidity,Sea Level PressureIn,VisibilityMPH,Wind Direction,Wind SpeedMPH,Gust SpeedMPH,PrecipitationIn,Events,Conditions,WindDirDegrees,DateUTC
12:53 AM,12.0,9.0,88,30.42,10.0,South,9.2,-,N/A,,Mostly Cloudy,190,2013-02-13 08:53:00
1:53 AM,12.0,8.1,84,30.41,10.0,SSE,11.5,-,N/A,,Clear,160,2013-02-13 09:53:00
2:53 AM,9.0,6.1,88,30.42,10.0,South,8.1,-,N/A,,Clear,170,2013-02-13 10:53:00
3:53 AM,8.1,5.0,87,30.42,10.0,South,10.4,-,N/A,,Clear,180,2013-02-13 11:53:00
4:53 AM,7.0,3.9,87,30.45,10.0,South,11.5,-,N/A,,Clear,170,2013-02-13 12:53:00
5:53 AM,6.8,3.2,85,30.30,10.0,South,10.4,-,N/A,,Clear,180,2013-02-13 13:53:00
6:53 AM,7.0,3.9,87,30.52,10.0,South,12.7,-,N/A,,Clear,170,2013-02-13 14:53:00
7:53 AM,12.9,9.0,84,30.52,10.0,South,10.4,-,N/A,,Clear,180,2013-02-13 15:53:00
8:53 AM,19.9,14.0,78,30.49,10.0,South,6.9,-,N/A,,Clear,180,2013-02-13 16:53:00
9:53 AM,26.1,18.0,71,30.48,10.0,Calm,Calm,-,N/A,,Clear,0,2013-02-13 17:53:00
10:53 AM,32.0,19.0,59,30.41,10.0,Calm,Calm,-,N/A,,Clear,0,2013-02-13 18:53:00
11:53 AM,36.0,19.0,50,30.36,10.0,Calm,Calm,-,N/A,,Clear,0,2013-02-13 19:53:00
12:53 PM,36.0,19.9,52,30.36,10.0,Calm,Calm,-,N/A,,Clear,0,2013-02-13 20:53:00
1:53 PM,37.9,21.9,53,30.33,10.0,NE,5.8,-,N/A,,Clear,40,2013-02-13 21:53:00
2:53 PM,37.9,21.9,53,30.35,10.0,North,6.9,-,N/A,,Clear,350,2013-02-13 22:53:00
3:53 PM,37.9,24.1,57,30.35,10.0,North,4.6,-,N/A,,Clear,360,2013-02-13 23:53:00
4:53 PM,32.0,24.1,73,30.38,10.0,NNW,3.5,-,N/A,,Clear,340,2013-02-14 00:53:00
5:53 PM,27.0,21.9,81,30.41,10.0,Calm,Calm,-,N/A,,Clear,0,2013-02-14 01:53:00
6:53 PM,21.9,19.0,89,30.43,10.0,Calm,Calm,-,N/A,,Clear,0,2013-02-14 02:53:00
7:53 PM,18.0,16.0,92,30.43,10.0,SSE,3.5,-,N/A,,Clear,150,2013-02-14 03:53:00
8:53 PM,18.0,15.1,88,30.41,10.0,SE,5.8,-,N/A,,Clear,140,2013-02-14 04:53:00
9:53 PM,17.1,15.1,92,30.38,10.0,South,10.4,-,N/A,,Clear,170,2013-02-14 05:53:00
10:53 PM,18.0,15.1,88,30.35,10.0,South,10.4,-,N/A,,Clear,170,2013-02-14 06:53:00
11:53 PM,15.8,12.2,86,30.27,10.0,SSE,9.2,-,N/A,,Clear,160,2013-02-14 07:53:00